Cork, Ireland

2:24 AM GMT on January 20, 2017 (GMT +0000)
Cork

Weather History for EICK - October, 2011

Change the Weather History Date:

Monday, October 17, 2011

  Actual Average Record
Temperature  
Mean Temperature 48 °F -  
Max Temperature 55 °F 53 °F 61 °F (2013)
Min Temperature 41 °F 43 °F 39 °F (2002)
Degree Days  
Heating Degree Days 16    
Moisture  
Dew Point 48 °F    
Average Humidity 92    
Maximum Humidity 100    
Minimum Humidity 76    
Precipitation  
Precipitation 0.12 in 0.15 in - ()
Sea Level Pressure  
Sea Level Pressure 29.89 in    
Wind  
Wind Speed 14 mph ()    
Max Wind Speed 31 mph    
Max Gust Speed 47 mph    
Visibility 6.6 miles    
Events Rain    
Averages and records for this station are not official NWS values.
T = Trace of Precipitation, MM = Missing Value Source: Averaged Metar Reports

Daily Weather History Graph

Daily Weather History Graph

Search for Another Location

Airport or City:

Trip Planner

Search our weather history database for the weather conditions in past years. The results will help you decide how hot, cold, wet, or windy it might be!

Date:

Astronomy

Oct. 17, 2011 Rise Set
Actual Time 8:01 AM IST 6:36 PM IST
Civil Twilight 7:27 AM IST 7:10 PM IST
Nautical Twilight 6:48 AM IST 7:49 PM IST
Astronomical Twilight 6:09 AM IST 8:28 PM IST
Moon 9:33 PM IST (10/17) 1:28 PM IST (10/17)
Length of Visible Light 11h 43m
Length of Day
10h 35m
Waning Gibbous, 76% of the Moon is Illuminated
Oct 17
Waning Gibbous
Oct 20
Last Quarter
Oct 26
New
Nov 2
First Quarter
Nov 10
Full

Hourly Weather History & Observations

Time (IST) Temp. Windchill Dew Point Humidity Pressure Visibility Wind Dir Wind Speed Gust Speed Precip Events Conditions
12:00 AM 48.2 °F - 46.4 °F 93% 30.09 in 6.2 mi SW 9.2 mph - N/A   Mostly Cloudy
12:30 AM 50.0 °F - 48.2 °F 94% 30.09 in 6.2 mi South 5.8 mph - N/A   Light Drizzle
1:00 AM 49 °F - 48 °F 97% 30.10 in 19 mi SSW 6.7 mph - -   Partly Cloudy
1:00 AM 48.2 °F - 48.2 °F 100% 30.06 in 6.2 mi SSW 6.9 mph - N/A   Mostly Cloudy
1:30 AM 50.0 °F - 48.2 °F 94% 30.06 in 6.2 mi SW 10.4 mph - N/A   Mostly Cloudy
2:00 AM 50.0 °F - 48.2 °F 94% 30.06 in 6.2 mi SW 13.8 mph - N/A   Scattered Clouds
2:30 AM 50.0 °F - 50.0 °F 100% 30.04 in 6.2 mi SW 11.5 mph - N/A   Partly Cloudy
3:00 AM 50.0 °F - 48.2 °F 94% 30.04 in 6.2 mi SW 15.0 mph - N/A   Scattered Clouds
3:30 AM 50.0 °F - 48.2 °F 94% 30.04 in 6.2 mi SW 13.8 mph - N/A   Mostly Cloudy
4:00 AM 50.0 °F - 48.2 °F 94% 30.04 in 6.2 mi SW 9.2 mph - N/A   Mostly Cloudy
4:30 AM 50.0 °F - 50.0 °F 100% 30.01 in 6.2 mi SW 12.7 mph - N/A   Mostly Cloudy
5:00 AM 50.0 °F - 48.2 °F 94% 30.01 in 6.2 mi SW 12.7 mph - N/A   Mostly Cloudy
5:30 AM 50.0 °F - 50.0 °F 100% 29.98 in 6.2 mi SW 15.0 mph - N/A   Mostly Cloudy
6:00 AM 50.0 °F - 50.0 °F 100% 29.98 in 6.2 mi SW 15.0 mph - N/A   Mostly Cloudy
6:30 AM 51.8 °F - 50.0 °F 94% 29.98 in 6.2 mi SW 12.7 mph - N/A   Mostly Cloudy
7:00 AM 51 °F - 50 °F 95% 29.98 in 19 mi SW 15.7 mph - -   Mostly Cloudy
7:00 AM 51.8 °F - 50.0 °F 94% 29.95 in 6.2 mi SW 16.1 mph - N/A   Mostly Cloudy
7:30 AM 51.8 °F - 50.0 °F 94% 29.95 in 6.2 mi SW 18.4 mph - N/A   Mostly Cloudy
8:00 AM 51.8 °F - 50.0 °F 94% 29.95 in 6.2 mi SW 15.0 mph - N/A   Mostly Cloudy
8:30 AM 51.8 °F - 48.2 °F 88% 29.92 in 6.2 mi SW 17.3 mph - N/A   Mostly Cloudy
9:00 AM 51.8 °F - 50.0 °F 94% 29.92 in 6.2 mi SW 13.8 mph - N/A   Mostly Cloudy
9:30 AM 51.8 °F - 50.0 °F 94% 29.92 in 6.2 mi SW 17.3 mph - N/A   Mostly Cloudy
10:00 AM 51.8 °F - 50.0 °F 94% 29.89 in 6.2 mi SW 23.0 mph - N/A   Mostly Cloudy
10:30 AM 53.6 °F - 51.8 °F 94% 29.89 in 6.2 mi SW 19.6 mph - N/A   Mostly Cloudy
11:00 AM 53.6 °F - 51.8 °F 94% 29.86 in 6.2 mi SW 23.0 mph - N/A   Mostly Cloudy
11:30 AM 53.6 °F - 51.8 °F 94% 29.83 in 6.2 mi SW 28.8 mph 40.3 mph N/A   Mostly Cloudy
12:00 PM 53.6 °F - 53.6 °F 100% 29.83 in 6.2 mi SW 27.6 mph 44.9 mph N/A   Mostly Cloudy
12:30 PM 53.6 °F - 51.8 °F 94% 29.80 in 6.2 mi SW 31.1 mph - N/A   Mostly Cloudy
1:00 PM 54 °F - 51 °F 86% 29.81 in 11 mi SW 29.1 mph - - Rain Light Rain Showers
1:00 PM 53.6 °F - 51.8 °F 94% 29.80 in 6.2 mi SW 28.8 mph 41.4 mph N/A Rain Light Rain Showers
1:30 PM 53.6 °F - 51.8 °F 94% 29.77 in 6.2 mi SW 27.6 mph 39.1 mph N/A   Mostly Cloudy
2:00 PM 53.6 °F - 51.8 °F 94% 29.74 in 4.3 mi SW 29.9 mph - N/A Rain Light Rain Showers
2:30 PM 53.6 °F - 51.8 °F 94% 29.74 in 6.2 mi SW 29.9 mph 43.7 mph N/A   Mostly Cloudy
3:00 PM 53.6 °F - 51.8 °F 94% 29.71 in 4.3 mi SW 31.1 mph 47.2 mph N/A Rain Light Rain
3:30 PM 53.6 °F - 53.6 °F 100% 29.71 in 5.6 mi SW 26.5 mph 42.6 mph N/A Rain Light Rain
4:00 PM 53.6 °F - 53.6 °F 100% 29.71 in 5.0 mi SW 24.2 mph 38.0 mph N/A Rain Light Rain
4:30 PM 55.4 °F - 53.6 °F 94% 29.68 in 4.3 mi SW 25.3 mph 41.4 mph N/A Rain Light Rain
5:00 PM 50.0 °F - 48.2 °F 94% 29.74 in 3.7 mi WNW 23.0 mph - N/A Rain Light Rain
5:30 PM 48.2 °F - 46.4 °F 93% 29.74 in 6.2 mi WNW 16.1 mph - N/A Rain Light Rain
6:00 PM 48.2 °F - 46.4 °F 93% 29.74 in 6.2 mi WNW 13.8 mph - N/A   Mostly Cloudy
6:30 PM 48.2 °F - 46.4 °F 93% 29.77 in 6.2 mi WNW 12.7 mph - N/A   Mostly Cloudy
7:00 PM 48 °F - 45 °F 84% 29.81 in 28 mi WNW 11.2 mph - - Rain Light Rain Showers
7:00 PM 48.2 °F - 44.6 °F 87% 29.80 in 6.2 mi WNW 11.5 mph - N/A   Mostly Cloudy
7:30 PM 48.2 °F - 42.8 °F 82% 29.80 in 6.2 mi West 15.0 mph - N/A   Mostly Cloudy
8:00 PM 46.4 °F 40.4 °F 42.8 °F 87% 29.80 in 6.2 mi West 13.8 mph - N/A   Scattered Clouds
8:30 PM 46.4 °F 41.5 °F 41.0 °F 81% 29.80 in 6.2 mi West 10.4 mph - N/A   Scattered Clouds
9:00 PM 46.4 °F 41.5 °F 41.0 °F 81% 29.83 in 6.2 mi West 10.4 mph - N/A   Mostly Cloudy
9:30 PM 46.4 °F 41.5 °F 39.2 °F 76% 29.83 in 6.2 mi West 10.4 mph - N/A   Mostly Cloudy
10:00 PM 44.6 °F 40.7 °F 39.2 °F 81% 29.86 in 6.2 mi West 6.9 mph - N/A   Mostly Cloudy
10:30 PM 42.8 °F 38.6 °F 39.2 °F 87% 29.86 in 6.2 mi WSW 6.9 mph - N/A   Mostly Cloudy
11:00 PM 44.6 °F 41.4 °F 39.2 °F 81% 29.86 in 6.2 mi WSW 5.8 mph - N/A   Mostly Cloudy
11:30 PM 41.0 °F 36.4 °F 37.4 °F 87% 29.86 in 6.2 mi WSW 6.9 mph - N/A   Mostly Cloudy